Location: Mactaquac Provincial Park
(45.9573°N, 66.8897°W)
Time: 14:39:43
(UTC-04:00)

CENTAUR R/B - Visible Passes

Search period start: 20 December 2014 00:00
Search period end: 30 December 2014 00:00
Orbit: 891 x 1298 km, 63.5° (Epoch: 17 December)

Date Brightness Start Highest point End Pass type
(mag) Time Alt. Az. Time Alt. Az. Time Alt. Az.
20 Dec 5.2 04:00:54 10° SE 04:03:33 13° ESE 04:06:16 10° ENE visible
20 Dec 2.8 05:46:36 10° SSW 05:52:48 72° ESE 05:59:41 10° NE visible
21 Dec 3.5 05:00:14 16° S 05:04:52 44° ESE 05:11:16 10° NE visible
21 Dec 2.9 06:49:24 10° WSW 06:55:32 47° NW 07:02:20 10° NNE visible
22 Dec 4.3 04:15:19 23° SE 04:17:08 27° ESE 04:22:33 10° ENE visible
22 Dec 2.5 06:02:37 20° SW 06:07:09 68° NW 06:14:09 10° NE visible
23 Dec 4.9 03:29:55 15° E 03:29:55 15° E 03:33:05 10° ENE visible
23 Dec 2.6 05:17:11 51° SSW 05:18:58 80° SE 05:25:55 10° NE visible
23 Dec 3.4 07:04:40 10° W 07:10:25 32° NNW 07:16:44 10° NNE visible
24 Dec 3.3 04:31:27 49° ESE 04:31:27 49° ESE 04:37:33 10° NE visible
24 Dec 3.0 06:18:42 27° W 06:21:48 43° NW 06:28:32 10° NNE visible
25 Dec 4.5 03:45:32 24° ENE 03:45:32 24° ENE 03:48:55 10° NE visible
25 Dec 2.5 05:32:46 59° WNW 05:33:23 62° NW 05:40:21 10° NE visible
25 Dec 3.9 07:20:17 10° WNW 07:25:34 24° NNW 07:31:17 10° NNE visible
26 Dec 5.3 02:59:27 11° ENE 02:59:27 11° ENE 02:59:44 10° ENE visible
26 Dec 3.0 04:46:40 57° NE 04:46:40 57° NE 04:52:08 10° NE visible
26 Dec 3.5 06:33:54 22° WNW 06:36:45 30° NNW 06:42:57 10° NNE visible
27 Dec 4.2 04:00:28 29° NE 04:00:28 29° NE 04:03:48 10° NE visible
27 Dec 3.1 05:47:41 39° NW 05:48:06 40° NW 05:54:43 10° NNE visible
28 Dec 5.1 03:14:11 14° ENE 03:14:11 14° ENE 03:15:16 10° NE visible
28 Dec 3.2 05:01:23 44° N 05:01:23 44° N 05:06:33 10° NE visible
28 Dec 4.0 06:48:36 16° NW 06:51:57 23° NNW 06:57:33 10° NNE visible
29 Dec 4.1 04:15:01 30° NE 04:15:01 30° NE 04:18:20 10° NE visible
29 Dec 3.6 06:02:13 27° NW 06:03:05 28° NNW 06:09:10 10° NNE visible
